Погода в Шанталове

Россия / Смоленская область     54°12′28″N   32°33′31″E
темп.,
°C
ветер,
м/с
пор.,
м/с
влажн.,
%
обл.,
%
осадки,
мм/ч
давл.,
гПа
погр.,
м
14 мая, пт
пт1400:00+8юв499339 0.0 1013190
03:00+7юв4119392 0.0 1013247
06:00+9юв51290100 0.0 1013296
09:00+11юв51186100 0.0 1013430
12:00+13вюв4979100 0.0 1012521
15:00+19юв796113 0.3 10091522
18:00+18юв577897 1.8 1008732
21:00+13в3595100 3.4 100797
15 мая, сб
сб1500:00+13вюв339376 0.9 100735
03:00+11ююв349541 1.4 100762
06:00+11ю369687 0.0 1007144
09:00+16ю468039 0.0 1008496
12:00+19ю456393 1.9 1007981
15:00+18ююз5670100 6.0 10071034
18:00+17ююз577997 2.4 1007696
21:00+13ю411946 3.3 1008340
16 мая, вс
вс1600:00+11ююз511956 0.0 1008295
03:00+10ююз4119698 0.1 1009253
06:00+11ююз41096100 0.1 1010322
09:00+13ююз589269 1.2 1011429
12:00+17ююз5673100 0.1 10111127
15:00+18ююз567091 0.2 10121188
18:00+17ю3676100 0.0 1011188
21:00+15ю358463 0.1 101292
17 мая, пн
пн1700:00+12ююв228981 0.0 101211
03:00+11юв339114 0.0 101238
06:00+12вюв379241 0.0 1012144
09:00+17вюв4776100 0.0 1011375
12:00+21вюв466375 0.0 1009856
15:00+22в5868100 0.5 10061103
18:00+22юв51073100 2.6 1004303
21:00+17ююв41290100 5.7 1004301
18 мая, вт
вт1800:00+15в1198100 1.7 100412
03:00+14зюз4797100 3.3 1005358
06:00+12зюз2699100 0.0 1006254
09:00+15з3486100 0.0 1007596
12:00+17зюз1275100 0.1 1008886
15:00+19зюз3369100 1.4 1008920
18:00+18з3476100 1.2 1008808
21:00+14з228915 1.4 100814